SCP
0 0 0 0 0 0 0 0 -0 -0 -0 -0 -0 0 -0 -0 -0 -0 -0 0 0 -0 0 -0 0 0 0 0 0 0 0 0 0 0 0 0 0 0 0 0 0 0 0
0 0 0 0 0 0 0 0 0 -0 -0 -0 -0 0 0 -0 -0 -0 -0 -0 0 0 -0 0 0 0 0 0 0 0 0 0 0 0 0 0 0 0 0 0 0 0 0
0 0 0 0 -0 0 0 0 0 0 -0 0 -0 0 0 0 -0 -0 -0 -0 0 0 0 0 0 -0 0 -0 -0 0 0 0 0 0 0 0 0 0 0 0 0 0 0
-0 -0 0 -0 -0 -0 0 0 0 0 0 0 0 0 0 0 0 0 0 -0 0 -0 0 -0 -0 -0 -0 -0 0 0 -0 -0 0 0 0 0 0 0 0 0 0 0 0
-0 -0 -0 -0 -0 -0 -0 -0 0 0 -0 0 0 0 0 0 0 0 0 0 0 0 0 -0 0 -0 -0 -0 0 0 -0 0 0 0 0 0 0 0 0 0 0 0 0
-0 -0 -0 -0 -0 0 -0 -0 0 0 -0 0 0 0 0 0 -0 0 0 0 0 0 -0 -0 -0 -0 -0 -0 -0 -0 -0 -0 0 0 0 0 0 0 0 0 0 0 0
-0 -0 -0 -0 -0 0 0 -0 0 0 -0 0 0 0 0 0 0 0 0 0 0 0 -0 0 -0 -0 -0 -0 -0 -0 -0 0 0 0 0 0 0 0 0 0 0 0 -0
-0 -0 -0 -0 -0 0 0 0 0 0 -0 0 0 0 0 0 0 0 0 0 0 0 0 0 0 0 -0 -0 -0 -0 -0 0 0 0 0 0 0 0 0 -0 -0 0 0
-0 -0 -0 -0 -0 0 0 0 0 0 0 -0 0 0 0 0 0 0 0 -0 0 0 0 0 -0 0 -0 -0 -0 -0 -0 0 0 -0 0 0 0 0 -0 -0 -0 -0 0
-0 -0 -0 -0 -0 0 0 0 0 0 0 0 -0 -0 0 -0 -0 -0 0 0 0 0 0 0 -0 -0 -0 -0 -0 -0 0 0 0 0 0 0 0 -0 -0 -0 -0 -0 -0
-0 -0 -0 -0 -0 0 0 0 0 0 0 0 0 -0 -0 0 0 -0 0 0 0 0 0 0 0 0 0 0 0 -0 -0 -0 0 -0 -0 -0 -0 -0 0 0 -0 -0 0
-0 -0 -0 -0 -0 -0 0 0 0 0 0 0 0 -0 -0 0 -0 -0 -0 -0 -0 -0 0 -0 0 0 0 0 0 -0 -0 -0 -0 -0 -0 -0 -0 -0 -0 -0 0 0 0
-0 -0 -0 -0 -0 -0 0 0 0 0 0 0 0 0 0 0 0 0 -0 0 0 0 -0 0 0 -0 0 0 0 -0 0 0 -0 -0 -0 -0 0 0 -0 -0 -0 0 0
-0 -0 -0 -0 -0 -0 0 0 0 0 0 0 0 0 0 0 0 0 0 0 0 0 -0 0 0 0 0 -0 -0 -0 0 -0 0 0 0 0 -0 -0 -0 -0 0 0 0
-0 -0 -0 -0 -0 0 0 0 0 0 0 0 0 0 0 0 0 0 0 0 0 0 -0 -0 0 -0 -0 -0 -0 -0 -0 -0 -0 0 0 -0 -0 -0 -0 0 0 0 0
-0 -0 -0 -0 -0 0 0 0 -0 0 0 -0 -0 0 -0 -0 -0 -0 -0 -0 -0 -0 -0 -0 -0 -0 0 0 0 0 0 0 0 0 0 -0 -0 -0 0 0 0 0 0
-0 -0 -0 -0 -0 0 0 0 0 0 -0 -0 -0 -0 0 -0 -0 -0 -0 0 0 0 -0 -0 0 0 0 0 0 0 0 0 0 0 -0 -0 -0 0 0 0 0 0 0
-0 -0 -0 -0 -0 -0 0 0 0 -0 -0 -0 -0 -0 -0 -0 -0 -0 -0 -0 -0 0 0 0 0 0 0 0 0 0 0 0 -0 -0 -0 -0 0 0 0 0 0 0 0
-0 0 0 0 0 -0 -0 0 0 -0 -0 -0 -0 0 -0 -0 -0 -0 -0 -0 -0 -0 -0 0 0 -0 0 0 0 0 -0 -0 -0 0 -0 0 0 0 0 0 0 0 0
0 0 0 0 0 0 0 0 0 0 0 0 -0 -0 -0 0 -0 -0 -0 -0 -0 -0 -0 -0 0 -0 -0 -0 -0 -0 -0 0 0 0 0 0 0 0 0 0 0 0 0
0 0 0 0 0 0 0 0 0 0 0 0 0 0 -0 0 -0 -0 -0 -0 -0 0 0 -0 -0 -0 -0 -0 -0 0 0 0 0 0 0 0 0 0 0 0 0 0 0
0 0 0 0 0 0 0 0 0 0 0 0 0 0 -0 0 0 0 0 0 0 0 0 0 -0 0 0 -0 0 0 0 0 0 0 0 0 0 0 0 0 0 0 0
0 0 0 0 0 0 0 0 0 0 0 0 0 0 0 0 0 0 0 0 0 0 0 -0 -0 0 0 0 0 0 0 0 0 0 0 0 0 0 0 0 0 0 0
0 0 0 0 0 0 0 0 0 0 0 0 0 0 0 0 0 0 0 0 0 0 0 0 0 0 0 0 0 0 0 0 0 0 0 0 0 0 0 0 0 0 0
0 0 0 0 0 0 0 0 0 0 0 0 0 0 0 0 0 0 0 0 0 0 0 0 0 0 0 0 0 0 0 0 0 0 0 0 0 0 0 0 0 0 0
0 0 0 1 0 0 0 1 0 0 0 0 0 0 0 0 0 0 0 0 0 0 0 0 0 0 0 0 0 0 0 0 0 0 0 0 0 0 0 0 0 0 0
Wind_Speed_500mb
19 14 10 3 5 3 2 4 3 5 13 9 12 14 15 16 18 14 10 11 8 8 12 8 8 25 10 22 35 35 26 19 24 16 11 15 28 82 83 88 84 82 69
20 15 11 3 1 7 6 3 2 4 12 14 14 13 17 17 16 13 12 13 12 11 10 14 19 9 15 24 30 21 26 16 22 20 4 55 67 92 95 87 78 72 62
22 17 13 5 3 8 7 6 5 6 16 18 14 13 11 14 14 14 12 11 9 8 13 15 15 17 20 26 22 16 13 25 19 33 66 79 91 95 92 79 68 62 57
24 19 14 8 7 7 8 9 10 8 13 16 16 18 15 13 10 10 11 11 13 8 14 15 17 18 11 18 17 20 19 24 37 64 80 86 88 79 79 77 66 56 53
26 22 18 11 10 9 9 6 13 12 13 19 19 20 17 14 10 11 12 15 14 14 18 18 22 18 17 18 19 23 25 31 77 90 83 90 87 77 66 57 58 55 49
27 24 17 14 13 10 6 8 14 14 14 18 16 17 17 12 15 18 17 10 13 9 13 16 14 14 18 16 18 22 31 54 88 88 82 77 74 75 64 63 63 62 52
28 26 22 18 13 11 7 5 12 20 18 20 19 18 16 17 17 17 18 13 16 11 15 17 18 18 18 19 22 28 35 44 67 78 80 78 70 70 62 51 47 44 41
30 28 25 20 16 12 9 6 14 16 15 15 23 20 18 20 22 17 16 14 16 19 16 14 17 18 17 20 29 36 33 34 55 63 73 74 66 62 48 45 43 42 37
33 30 27 24 17 15 12 9 8 12 6 14 23 22 22 29 26 18 18 18 22 22 22 22 13 23 22 23 29 32 39 39 42 60 70 56 60 52 41 45 40 38 35
35 32 29 26 22 17 14 13 7 5 9 15 25 25 24 26 21 19 18 19 23 27 27 32 34 31 29 32 38 46 43 44 44 58 60 63 55 42 31 31 32 28 31
35 33 31 29 24 23 18 15 14 7 10 11 31 32 26 23 27 26 13 22 29 30 34 41 37 35 37 39 41 46 43 47 50 68 67 56 47 37 33 32 35 18 30
39 36 34 33 27 24 21 18 16 12 13 24 34 32 26 32 31 23 22 30 35 30 45 44 33 37 33 40 43 43 51 51 53 56 58 49 39 39 41 30 40 38 41
42 40 37 36 32 26 25 23 20 19 13 24 26 24 25 30 34 34 33 43 35 28 34 36 40 38 36 33 35 39 43 40 43 40 39 38 32 30 40 48 45 41 38
46 44 41 39 37 31 27 25 22 21 20 21 26 25 26 35 34 39 40 35 35 29 30 35 38 36 32 34 40 43 29 28 28 31 35 35 46 48 41 37 37 37 36
48 47 44 40 43 38 33 28 26 23 23 23 22 21 28 33 41 43 39 36 33 29 28 35 35 30 36 39 39 28 27 40 33 34 37 39 41 38 34 34 30 31 26
57 51 49 45 44 40 40 37 36 32 36 32 31 28 25 26 31 48 50 43 37 35 32 30 28 29 30 34 35 33 33 36 32 35 39 35 33 33 30 31 29 28 26
64 56 50 48 44 45 43 40 41 42 37 44 40 34 30 35 29 34 50 47 50 43 35 33 30 32 33 34 34 34 33 31 32 32 31 32 33 32 36 32 32 31 30
69 59 53 52 47 46 44 44 39 41 43 45 48 49 38 33 32 35 42 46 53 51 40 36 34 35 37 37 37 38 38 38 39 40 40 39 39 37 38 38 37 38 37
67 59 55 49 48 45 44 43 43 41 41 40 42 54 55 49 42 41 43 48 44 45 45 39 38 38 39 40 41 41 42 44 44 46 45 44 44 41 41 40 38 40 39
70 63 63 50 50 48 48 46 45 46 44 45 48 50 63 60 59 61 61 57 45 44 45 45 42 42 44 44 46 46 46 49 50 51 50 50 49 47 44 43 40 41 47
67 67 71 57 52 51 51 49 48 47 47 48 49 51 56 71 57 55 64 65 57 50 47 46 47 48 47 48 49 52 52 52 55 55 54 52 53 51 52 48 48 48 50
64 63 72 70 55 54 52 51 50 50 49 48 47 49 60 53 56 55 55 56 60 61 54 52 51 51 53 54 56 57 56 57 58 58 59 57 56 57 55 54 51 49 52
64 63 63 78 66 59 57 53 53 53 53 51 49 49 61 63 53 59 61 60 60 60 62 66 58 55 56 60 63 64 61 62 61 63 62 59 56 59 59 55 52 50 56
64 63 65 64 74 64 62 63 57 55 54 54 55 55 57 60 58 60 60 62 62 63 57 61 66 64 63 62 62 65 64 63 62 60 58 60 56 53 54 52 53 52 67
62 63 65 64 68 74 66 66 66 59 60 58 58 59 59 58 57 61 65 64 63 63 64 64 64 62 65 66 64 61 61 62 61 57 53 57 60 54 52 56 54 60 62
64 61 64 64 61 67 71 69 68 67 61 64 65 63 63 62 61 60 61 67 72 68 67 66 68 61 58 60 65 70 67 68 68 67 67 53 49 54 51 55 56 60 60
Wind_Direction_500mb
170 161 181 158 252 226 171 205 222 177 150 169 146 142 150 161 177 188 184 165 178 200 187 208 189 157 148 160 161 164 170 182 165 167 214 229 181 167 170 160 158 155 156
165 163 153 141 203 162 130 67 145 155 158 164 151 144 153 159 162 170 165 175 187 189 172 152 148 144 128 149 162 182 192 161 179 170 237 165 168 164 157 147 145 149 158
165 166 154 135 106 137 156 143 119 146 148 159 152 133 145 149 159 160 157 161 153 130 140 149 158 142 141 152 161 160 173 188 189 163 137 137 148 146 146 146 152 152 163
167 170 164 136 125 131 141 128 130 141 127 148 152 152 145 143 147 150 146 153 138 154 131 157 154 173 160 147 158 156 171 169 168 154 144 142 143 148 151 154 154 167 161
170 172 171 149 129 97 87 131 149 130 144 146 153 157 141 142 157 175 140 146 164 168 145 155 163 175 167 163 160 155 162 160 152 155 145 149 152 153 149 156 156 149 146
173 172 170 161 157 136 112 124 140 126 135 141 143 150 141 159 182 154 135 137 140 163 185 173 171 168 164 156 144 148 164 156 153 156 154 157 151 161 153 150 145 145 144
174 173 174 173 172 145 133 143 141 152 134 153 151 147 137 161 159 159 148 149 140 143 135 140 138 152 148 151 134 137 153 164 169 165 160 162 158 155 154 148 157 163 150
175 174 174 172 173 150 136 113 144 147 146 157 142 143 158 145 143 143 131 122 122 144 152 145 140 153 172 156 148 147 150 172 173 175 173 170 168 157 147 141 155 153 162
178 176 174 170 169 161 147 134 126 156 169 164 167 155 163 147 141 131 129 137 142 138 136 141 130 125 123 138 142 150 152 163 176 180 176 172 161 149 147 146 150 166 160
180 177 174 171 169 162 154 140 137 146 168 160 168 163 161 166 152 129 122 140 138 141 139 128 120 113 120 124 126 144 139 148 157 163 163 156 156 163 165 157 144 163 163
179 176 174 172 167 169 159 149 136 133 141 160 169 167 161 161 144 136 152 151 135 130 142 138 130 122 123 128 128 135 129 141 136 157 158 157 161 164 168 169 163 203 193
180 178 176 174 173 180 166 155 147 137 112 121 148 150 163 156 141 145 129 141 126 115 143 136 136 131 129 130 125 129 127 133 138 150 163 170 173 177 172 177 198 203 193
180 179 178 176 172 172 171 164 161 146 142 139 150 153 157 163 156 151 138 146 128 129 131 137 136 133 135 140 135 137 126 137 144 152 162 168 164 171 193 198 202 205 210
181 181 180 179 176 179 180 176 171 164 158 163 149 166 170 176 169 167 161 152 150 145 149 141 141 140 145 145 144 145 137 157 159 159 166 167 189 199 206 204 209 214 222
183 183 184 184 181 183 182 186 181 179 176 171 172 175 172 180 186 176 173 171 165 167 157 157 155 155 159 162 163 166 173 177 172 177 182 190 196 195 199 205 209 213 217
183 185 187 187 187 189 187 190 192 192 193 185 176 178 186 191 197 190 180 173 180 181 171 172 176 180 182 185 189 190 190 190 193 203 205 205 202 199 201 207 203 205 204
185 187 189 187 192 190 192 194 197 200 201 197 191 193 195 190 201 198 199 193 186 187 186 191 194 196 196 198 199 202 203 207 199 204 205 202 202 204 209 208 208 213 216
191 191 188 188 194 194 196 197 199 202 201 202 200 201 200 205 202 193 190 191 193 197 202 205 208 209 208 208 208 209 211 213 211 210 210 211 209 211 214 215 217 218 220
196 194 190 194 195 196 198 199 201 202 203 202 200 203 206 208 202 200 199 198 197 201 202 209 215 215 216 216 217 217 218 219 221 216 216 217 220 219 223 227 227 230 226
199 198 193 197 196 197 198 202 203 203 204 203 203 206 206 206 207 204 205 202 207 213 215 216 216 218 219 219 220 221 223 223 224 226 223 222 224 226 228 231 232 233 228
202 202 202 196 199 202 201 203 205 205 206 207 208 209 211 210 207 211 216 215 213 214 219 222 223 222 222 222 222 223 224 225 227 227 228 228 228 229 232 232 235 232 230
205 205 205 200 203 204 205 206 207 209 210 210 211 213 220 221 210 215 218 223 223 220 217 224 225 227 227 227 225 225 226 227 227 229 229 229 231 232 232 234 233 234 230
206 206 208 206 207 207 205 207 210 212 213 213 213 213 215 218 216 216 219 222 227 229 227 220 224 228 228 230 231 231 229 230 231 232 233 234 233 233 235 235 233 231 229
208 209 209 211 208 208 208 207 210 213 215 216 216 216 221 215 220 218 219 222 224 228 232 230 229 228 232 232 234 235 237 235 234 233 236 236 238 239 237 235 232 228 233
211 213 211 210 210 211 211 210 209 212 214 215 218 219 220 222 222 223 222 221 224 226 228 232 232 233 231 231 233 234 236 240 239 231 234 238 238 238 238 232 230 225 228
215 217 214 213 215 214 213 211 213 214 217 218 217 219 220 222 227 229 228 227 227 227 230 232 234 233 233 235 236 234 231 237 239 237 232 230 238 236 231 231 225 231 223
Wind_Speed_850mb
19 14 10 3 5 3 2 4 3 5 13 9 12 14 15 16 18 14 10 11 8 8 12 8 8 25 10 22 35 35 26 19 24 16 11 15 28 82 83 88 84 82 69
20 15 11 3 1 7 6 3 2 4 12 14 14 13 17 17 16 13 12 13 12 11 10 14 19 9 15 24 30 21 26 16 22 20 4 55 67 92 95 87 78 72 62
22 17 13 5 3 8 7 6 5 6 16 18 14 13 11 14 14 14 12 11 9 8 13 15 15 17 20 26 22 16 13 25 19 33 66 79 91 95 92 79 68 62 57
24 19 14 8 7 7 8 9 10 8 13 16 16 18 15 13 10 10 11 11 13 8 14 15 17 18 11 18 17 20 19 24 37 64 80 86 88 79 79 77 66 56 53
26 22 18 11 10 9 9 6 13 12 13 19 19 20 17 14 10 11 12 15 14 14 18 18 22 18 17 18 19 23 25 31 77 90 83 90 87 77 66 57 58 55 49
27 24 17 14 13 10 6 8 14 14 14 18 16 17 17 12 15 18 17 10 13 9 13 16 14 14 18 16 18 22 31 54 88 88 82 77 74 75 64 63 63 62 52
28 26 22 18 13 11 7 5 12 20 18 20 19 18 16 17 17 17 18 13 16 11 15 17 18 18 18 19 22 28 35 44 67 78 80 78 70 70 62 51 47 44 41
30 28 25 20 16 12 9 6 14 16 15 15 23 20 18 20 22 17 16 14 16 19 16 14 17 18 17 20 29 36 33 34 55 63 73 74 66 62 48 45 43 42 37
33 30 27 24 17 15 12 9 8 12 6 14 23 22 22 29 26 18 18 18 22 22 22 22 13 23 22 23 29 32 39 39 42 60 70 56 60 52 41 45 40 38 35
35 32 29 26 22 17 14 13 7 5 9 15 25 25 24 26 21 19 18 19 23 27 27 32 34 31 29 32 38 46 43 44 44 58 60 63 55 42 31 31 32 28 31
35 33 31 29 24 23 18 15 14 7 10 11 31 32 26 23 27 26 13 22 29 30 34 41 37 35 37 39 41 46 43 47 50 68 67 56 47 37 33 32 35 18 30
39 36 34 33 27 24 21 18 16 12 13 24 34 32 26 32 31 23 22 30 35 30 45 44 33 37 33 40 43 43 51 51 53 56 58 49 39 39 41 30 40 38 41
42 40 37 36 32 26 25 23 20 19 13 24 26 24 25 30 34 34 33 43 35 28 34 36 40 38 36 33 35 39 43 40 43 40 39 38 32 30 40 48 45 41 38
46 44 41 39 37 31 27 25 22 21 20 21 26 25 26 35 34 39 40 35 35 29 30 35 38 36 32 34 40 43 29 28 28 31 35 35 46 48 41 37 37 37 36
48 47 44 40 43 38 33 28 26 23 23 23 22 21 28 33 41 43 39 36 33 29 28 35 35 30 36 39 39 28 27 40 33 34 37 39 41 38 34 34 30 31 26
57 51 49 45 44 40 40 37 36 32 36 32 31 28 25 26 31 48 50 43 37 35 32 30 28 29 30 34 35 33 33 36 32 35 39 35 33 33 30 31 29 28 26
64 56 50 48 44 45 43 40 41 42 37 44 40 34 30 35 29 34 50 47 50 43 35 33 30 32 33 34 34 34 33 31 32 32 31 32 33 32 36 32 32 31 30
69 59 53 52 47 46 44 44 39 41 43 45 48 49 38 33 32 35 42 46 53 51 40 36 34 35 37 37 37 38 38 38 39 40 40 39 39 37 38 38 37 38 37
67 59 55 49 48 45 44 43 43 41 41 40 42 54 55 49 42 41 43 48 44 45 45 39 38 38 39 40 41 41 42 44 44 46 45 44 44 41 41 40 38 40 39
70 63 63 50 50 48 48 46 45 46 44 45 48 50 63 60 59 61 61 57 45 44 45 45 42 42 44 44 46 46 46 49 50 51 50 50 49 47 44 43 40 41 47
67 67 71 57 52 51 51 49 48 47 47 48 49 51 56 71 57 55 64 65 57 50 47 46 47 48 47 48 49 52 52 52 55 55 54 52 53 51 52 48 48 48 50
64 63 72 70 55 54 52 51 50 50 49 48 47 49 60 53 56 55 55 56 60 61 54 52 51 51 53 54 56 57 56 57 58 58 59 57 56 57 55 54 51 49 52
64 63 63 78 66 59 57 53 53 53 53 51 49 49 61 63 53 59 61 60 60 60 62 66 58 55 56 60 63 64 61 62 61 63 62 59 56 59 59 55 52 50 56
64 63 65 64 74 64 62 63 57 55 54 54 55 55 57 60 58 60 60 62 62 63 57 61 66 64 63 62 62 65 64 63 62 60 58 60 56 53 54 52 53 52 67
62 63 65 64 68 74 66 66 66 59 60 58 58 59 59 58 57 61 65 64 63 63 64 64 64 62 65 66 64 61 61 62 61 57 53 57 60 54 52 56 54 60 62
64 61 64 64 61 67 71 69 68 67 61 64 65 63 63 62 61 60 61 67 72 68 67 66 68 61 58 60 65 70 67 68 68 67 67 53 49 54 51 55 56 60 60
Wind_Direction_850mb
170 161 181 158 252 226 171 205 222 177 150 169 146 142 150 161 177 188 184 165 178 200 187 208 189 157 148 160 161 164 170 182 165 167 214 229 181 167 170 160 158 155 156
165 163 153 141 203 162 130 67 145 155 158 164 151 144 153 159 162 170 165 175 187 189 172 152 148 144 128 149 162 182 192 161 179 170 237 165 168 164 157 147 145 149 158
165 166 154 135 106 137 156 143 119 146 148 159 152 133 145 149 159 160 157 161 153 130 140 149 158 142 141 152 161 160 173 188 189 163 137 137 148 146 146 146 152 152 163
167 170 164 136 125 131 141 128 130 141 127 148 152 152 145 143 147 150 146 153 138 154 131 157 154 173 160 147 158 156 171 169 168 154 144 142 143 148 151 154 154 167 161
170 172 171 149 129 97 87 131 149 130 144 146 153 157 141 142 157 175 140 146 164 168 145 155 163 175 167 163 160 155 162 160 152 155 145 149 152 153 149 156 156 149 146
173 172 170 161 157 136 112 124 140 126 135 141 143 150 141 159 182 154 135 137 140 163 185 173 171 168 164 156 144 148 164 156 153 156 154 157 151 161 153 150 145 145 144
174 173 174 173 172 145 133 143 141 152 134 153 151 147 137 161 159 159 148 149 140 143 135 140 138 152 148 151 134 137 153 164 169 165 160 162 158 155 154 148 157 163 150
175 174 174 172 173 150 136 113 144 147 146 157 142 143 158 145 143 143 131 122 122 144 152 145 140 153 172 156 148 147 150 172 173 175 173 170 168 157 147 141 155 153 162
178 176 174 170 169 161 147 134 126 156 169 164 167 155 163 147 141 131 129 137 142 138 136 141 130 125 123 138 142 150 152 163 176 180 176 172 161 149 147 146 150 166 160
180 177 174 171 169 162 154 140 137 146 168 160 168 163 161 166 152 129 122 140 138 141 139 128 120 113 120 124 126 144 139 148 157 163 163 156 156 163 165 157 144 163 163
179 176 174 172 167 169 159 149 136 133 141 160 169 167 161 161 144 136 152 151 135 130 142 138 130 122 123 128 128 135 129 141 136 157 158 157 161 164 168 169 163 203 193
180 178 176 174 173 180 166 155 147 137 112 121 148 150 163 156 141 145 129 141 126 115 143 136 136 131 129 130 125 129 127 133 138 150 163 170 173 177 172 177 198 203 193
180 179 178 176 172 172 171 164 161 146 142 139 150 153 157 163 156 151 138 146 128 129 131 137 136 133 135 140 135 137 126 137 144 152 162 168 164 171 193 198 202 205 210
181 181 180 179 176 179 180 176 171 164 158 163 149 166 170 176 169 167 161 152 150 145 149 141 141 140 145 145 144 145 137 157 159 159 166 167 189 199 206 204 209 214 222
183 183 184 184 181 183 182 186 181 179 176 171 172 175 172 180 186 176 173 171 165 167 157 157 155 155 159 162 163 166 173 177 172 177 182 190 196 195 199 205 209 213 217
183 185 187 187 187 189 187 190 192 192 193 185 176 178 186 191 197 190 180 173 180 181 171 172 176 180 182 185 189 190 190 190 193 203 205 205 202 199 201 207 203 205 204
185 187 189 187 192 190 192 194 197 200 201 197 191 193 195 190 201 198 199 193 186 187 186 191 194 196 196 198 199 202 203 207 199 204 205 202 202 204 209 208 208 213 216
191 191 188 188 194 194 196 197 199 202 201 202 200 201 200 205 202 193 190 191 193 197 202 205 208 209 208 208 208 209 211 213 211 210 210 211 209 211 214 215 217 218 220
196 194 190 194 195 196 198 199 201 202 203 202 200 203 206 208 202 200 199 198 197 201 202 209 215 215 216 216 217 217 218 219 221 216 216 217 220 219 223 227 227 230 226
199 198 193 197 196 197 198 202 203 203 204 203 203 206 206 206 207 204 205 202 207 213 215 216 216 218 219 219 220 221 223 223 224 226 223 222 224 226 228 231 232 233 228
202 202 202 196 199 202 201 203 205 205 206 207 208 209 211 210 207 211 216 215 213 214 219 222 223 222 222 222 222 223 224 225 227 227 228 228 228 229 232 232 235 232 230
205 205 205 200 203 204 205 206 207 209 210 210 211 213 220 221 210 215 218 223 223 220 217 224 225 227 227 227 225 225 226 227 227 229 229 229 231 232 232 234 233 234 230
206 206 208 206 207 207 205 207 210 212 213 213 213 213 215 218 216 216 219 222 227 229 227 220 224 228 228 230 231 231 229 230 231 232 233 234 233 233 235 235 233 231 229
208 209 209 211 208 208 208 207 210 213 215 216 216 216 221 215 220 218 219 222 224 228 232 230 229 228 232 232 234 235 237 235 234 233 236 236 238 239 237 235 232 228 233
211 213 211 210 210 211 211 210 209 212 214 215 218 219 220 222 222 223 222 221 224 226 228 232 232 233 231 231 233 234 236 240 239 231 234 238 238 238 238 232 230 225 228
215 217 214 213 215 214 213 211 213 214 217 218 217 219 220 222 227 229 228 227 227 227 230 232 234 233 233 235 236 234 231 237 239 237 232 230 238 236 231 231 225 231 223